sat.trackr.live / text

‹ back to catalog

KUIPER-00203

NORAD 67773 · 2026-030K

PAYLOAD ACTIVE UNKNOWN

§ Identity

Operator
Country
US
Launch date
2026-02-12
Launch site
FRGUI
Launch vehicle
Mass (kg)
RCS (m²)

External: N2YO · Heavens-Above · Gunter

§ Orbital elements

Epoch: 2026-09-20T21:48:57.818592Z

Period
97.30 min
Inclination
51.9066°
Eccentricity
0.0000943
Mean motion
14.79935134 rev/d
Perigee alt
628.9 km
Apogee alt
630.2 km
Semi-major
7,007.7 km
B*
2.6946e-4
RAAN
74.9497°
Arg perigee
112.9708°
Mean anomaly
247.1354°
Rev number
3,401

§ Raw data

KUIPER-002031 67773U 26030K   26263.90900253  .00001834  00000+0  26946-3 0  99932 67773  51.9066  74.9497 0000943 112.9708 247.1354 14.79935134 34013

JSON: /api/v1/satellites/67773 · /tle

For live sub-satellite position, see the globe view (requires WebGL).

§ Visibility from observer

Set your observer location to see the next 7 days of passes ≥ 10°. The values pass through the URL so the page stays shareable.

No JS? Fill the form by hand. The geolocation button needs JavaScript.